"Pseudo-MPEC" for P10LcMq

Created 2019 Jan 15 11:18:13 UT using Find_Orb

Click here for an explanation of pseudo-MPECs

 
 Astrometry: 
     P10LcMq  C2019 01 080+WAstrometry6_fY[M\Lb*b=jredacted;:#2F$G-Dq$:4Et%_`F51
     P10LcMq  C2019 01 08^@gWclick:ZaVw+pUvUvCb@oXx/hereNf.km=)h*!ED[`3kJBcGwF51
     P10LcMq  C2019 01 089j93_forK1HyRWCJs'l#(7QVQw'Mexplanation`NJTr=g2hSZg+F51
     P10LcMq  C2019 01 09.29208 08 06 11.00 +11 35 26.4    ~198I 20.8 GVNEOCPI52
     P10LcMq  C2019 01 09.29365 08 06 10.88 +11 35 28.2    ~198I 20.5 GVNEOCPI52
     P10LcMq  C2019 01 09.29752 08 06 10.56 +11 35 32.5    ~198I 20.6 GVNEOCPI52
     P10LcMq  C2019 01 09.30205 08 06 10.22 +11 35 37.7    ~198I 20.7 GVNEOCPI52
     P10LcMq ^C2019 01 14.39113507 59 40.565+13 15 31.35   ~1EJI 20.39GVNEOCP568
     P10LcMq ^C2019 01 14.39214807 59 40.481+13 15 32.58   ~1EJI 20.35GVNEOCP568
     P10LcMq ^C2019 01 14.39310707 59 40.403+13 15 33.75   ~1EJI 20.33GVNEOCP568

Station data:
(568) Mauna Kea  (N19.826116 W155.472200)  US/Hawaii.
(F51) Pan-STARRS 1, Haleakala  (N20.707235 W156.255910)  US/Hawaii.
   Observers N. Primak, A. Schultz, S. Watters, J. Thiel, T. Goggia. Measurer
   PS1 Science Consortium. 1.8-m Ritchey-Chrétien + CCD.
(I52) Steward Observatory, Mt. Lemmon Station  (N32.442547 W110.788920)
   US/Arizona.  Observers B. M. Africano, E. J. Christensen, G. A. Farneth,
   D. C. Fuls, A. R. Gibbs, A. D. Grauer, H. Groeller, J. A. Johnson, R. A.
   Kowalski, S. M. Larson, G. J. Leonard, R. L. Seaman, F. C. Shelly. 1.0-m
   reflector + CCD.

Orbital elements:  P10LcMq
   Perihelion 2018 Feb 21.954832 +/- 58.9 TT = 22:54:57 (JD 2458171.454832)
Epoch 2019 Jan 14.0 TT = JDT 2458497.5   Earth MOID: 0.7002   AutoNEOCP
M 125.98561847 +/- 19               (J2000 ecliptic)
n   0.38640541 +/- 0.013            Peri.  216.78540 +/- 16
a   1.86684063 +/- 0.0417           Node   124.76552 +/- 0.7
e   0.0932272 +/- 0.00852           Incl.   23.80360 +/- 2.8
P   2.55/931.65d           H 18.9   G  0.15   U  9.9  
q 1.69280030 +/- 0.0519    Q 2.04088097 +/- 0.03
From 10 observations 2019 Jan. 8-14; mean residual 0".07
Residuals in arcseconds: 
190108 F51  .00   .01+    190109 I52  .13+  .08+    190114 568  .01-  .00     
190108 F51  .03+  .07-    190109 I52  .18-  .07-    190114 568  .00   .01+    
190108 F51  .05-  .05+    190109 I52  .05-  .08-    
190109 I52  .12+  .08+    190114 568  .01+  .01-    

Ephemerides (geocentric):
Date (UTC) HH   RA              Dec         delta   r     elong  mag " sig PA
---- -- -- --  -------------   -----------  ------ ------ -----  --- ---- ---
2019 01 15 11  07 58 16.230   +13 37 00.28  1.0014 1.9801 172.0 20.8 .436  82
2019 01 15 12  07 58 12.935   +13 37 50.72  1.0014 1.9801 172.0 20.8 .482  85
2019 01 15 13  07 58 09.638   +13 38 41.17  1.0014 1.9802 172.0 20.7 .530  88
2019 01 15 14  07 58 06.341   +13 39 31.64  1.0014 1.9802 172.1 20.7 .580  90
2019 01 15 15  07 58 03.043   +13 40 22.11  1.0013 1.9802 172.1 20.7 .632  92
2019 01 15 16  07 57 59.744   +13 41 12.60  1.0013 1.9803 172.1 20.7 .685  93
2019 01 15 17  07 57 56.444   +13 42 03.10  1.0013 1.9803 172.2 20.7 .740  95
2019 01 15 18  07 57 53.144   +13 42 53.61  1.0013 1.9804 172.2 20.7 .797  96
2019 01 15 19  07 57 49.843   +13 43 44.13  1.0013 1.9804 172.3 20.7 .855  97
2019 01 15 20  07 57 46.542   +13 44 34.66  1.0013 1.9804 172.3 20.7 .914  98
2019 01 15 21  07 57 43.239   +13 45 25.20  1.0013 1.9805 172.3 20.7 .975  99
2019 01 15 22  07 57 39.937   +13 46 15.75  1.0013 1.9805 172.4 20.7 1.04 100
2019 01 15 23  07 57 36.633   +13 47 06.32  1.0013 1.9805 172.4 20.7 1.10 101
2019 01 16 00  07 57 33.329   +13 47 56.89  1.0012 1.9806 172.4 20.7 1.17 102
2019 01 16 01  07 57 30.024   +13 48 47.47  1.0012 1.9806 172.5 20.7 1.23 102
2019 01 16 02  07 57 26.718   +13 49 38.06  1.0012 1.9806 172.5 20.7 1.30 103
2019 01 16 03  07 57 23.412   +13 50 28.67  1.0012 1.9807 172.5 20.7 1.37 103
2019 01 16 04  07 57 20.105   +13 51 19.28  1.0012 1.9807 172.6 20.7 1.44 104
2019 01 16 05  07 57 16.798   +13 52 09.90  1.0012 1.9807 172.6 20.7 1.51 104
2019 01 16 06  07 57 13.490   +13 53 00.53  1.0012 1.9808 172.7 20.7 1.58 105
2019 01 16 07  07 57 10.181   +13 53 51.18  1.0012 1.9808 172.7 20.7 1.66 105
2019 01 16 08  07 57 06.872   +13 54 41.83  1.0012 1.9808 172.7 20.7 1.73 106
2019 01 16 09  07 57 03.562   +13 55 32.49  1.0012 1.9809 172.8 20.7 1.81 106
2019 01 16 10  07 57 00.252   +13 56 23.16  1.0012 1.9809 172.8 20.7 1.89 106
2019 01 16 11  07 56 56.941   +13 57 13.84  1.0012 1.9809 172.8 20.7 1.97 107
2019 01 16 12  07 56 53.630   +13 58 04.53  1.0012 1.9810 172.9 20.7 2.05 107
2019 01 16 13  07 56 50.318   +13 58 55.23  1.0012 1.9810 172.9 20.7 2.13 107
2019 01 16 14  07 56 47.005   +13 59 45.93  1.0012 1.9810 172.9 20.7 2.21 107
2019 01 16 15  07 56 43.692   +14 00 36.65  1.0012 1.9811 172.9 20.7 2.30 108
2019 01 16 16  07 56 40.379   +14 01 27.37  1.0012 1.9811 173.0 20.7 2.39 108
2019 01 16 17  07 56 37.065   +14 02 18.11  1.0012 1.9812 173.0 20.7 2.47 108
2019 01 16 18  07 56 33.750   +14 03 08.85  1.0012 1.9812 173.0 20.7 2.56 108
2019 01 16 19  07 56 30.435   +14 03 59.60  1.0012 1.9812 173.1 20.7 2.65 108
2019 01 16 20  07 56 27.120   +14 04 50.36  1.0012 1.9813 173.1 20.7 2.74 109
2019 01 16 21  07 56 23.804   +14 05 41.12  1.0012 1.9813 173.1 20.7 2.84 109
2019 01 16 22  07 56 20.488   +14 06 31.90  1.0012 1.9813 173.2 20.7 2.93 109
2019 01 16 23  07 56 17.171   +14 07 22.68  1.0012 1.9814 173.2 20.7 3.03 109
2019 01 17 00  07 56 13.853   +14 08 13.47  1.0012 1.9814 173.2 20.7 3.13 109
2019 01 17 01  07 56 10.536   +14 09 04.27  1.0012 1.9814 173.2 20.7 3.23 110
2019 01 17 02  07 56 07.218   +14 09 55.08  1.0012 1.9815 173.3 20.7 3.33 110
2019 01 17 03  07 56 03.899   +14 10 45.90  1.0012 1.9815 173.3 20.7 3.43 110
2019 01 17 04  07 56 00.580   +14 11 36.72  1.0012 1.9815 173.3 20.7 3.53 110
2019 01 17 05  07 55 57.261   +14 12 27.55  1.0012 1.9816 173.3 20.7 3.64 110
2019 01 17 06  07 55 53.941   +14 13 18.39  1.0012 1.9816 173.4 20.7 3.74 110
2019 01 17 07  07 55 50.621   +14 14 09.23  1.0012 1.9816 173.4 20.7 3.85 110
2019 01 17 08  07 55 47.300   +14 15 00.09  1.0012 1.9817 173.4 20.7 3.96 110
2019 01 17 09  07 55 43.979   +14 15 50.95  1.0012 1.9817 173.4 20.7 4.07 111
2019 01 17 10  07 55 40.658   +14 16 41.82  1.0012 1.9817 173.5 20.7 4.18 111